Weather History for KDUG - May, 2013

Change the Weather History Date:

Wednesday, May 22, 2013

  Actual Average Record
Temperature  
Mean Temperature 71 °F 72 °F  
Max Temperature 93 °F 90 °F 105 °F (2005)
Min Temperature 49 °F 53 °F 39 °F (1962)
Degree Days  
Heating Degree Days 0 0  
Month to date heating degree days 2 20  
Since 1 July heating degree days 2559 2521  
Cooling Degree Days 6 7  
Month to date cooling degree days 85 100  
Year to date cooling degree days 114 130  
Growing Degree Days 20 (Base 50)    
Moisture  
Dew Point 13 °F    
Average Humidity 10    
Maximum Humidity 15    
Minimum Humidity 5    
Precipitation  
Precipitation 0.00 in 0.01 in 0.00 in (2015)
Month to date precipitation 0.00 0.19  
Year to date precipitation 0.87 2.31  
Snow  
Snow 0.00 in - - ()
Month to date snowfall 0.0  
Snow Depth 0.00 in    
Sea Level Pressure  
Sea Level Pressure 29.73 in    
Wind  
Wind Speed 6 mph (SW)    
Max Wind Speed 21 mph    
Max Gust Speed 25 mph    
Visibility 10 miles    
Events      
T = Trace of Precipitation, MM = Missing Value Source: NWS Daily Summary

Daily Weather History Graph

Daily Weather History Graph

Search for Another Location

Airport or City:

Trip Planner

Search our weather history database for the weather conditions in past years. The results will help you decide how hot, cold, wet, or windy it might be!

Date:

Astronomy

May. 22, 2013 Rise Set
Actual Time 5:17 AM MST 7:12 PM MST
Civil Twilight 4:50 AM MST 7:39 PM MST
Nautical Twilight 4:18 AM MST 8:12 PM MST
Astronomical Twilight 3:43 AM MST 8:47 PM MST
Moon 4:46 PM MST (5/22) 3:13 AM MST (5/22)
Length of Visible Light 14h 48m
Length of Day
13h 54m
Waxing Gibbous, 92% of the Moon is Illuminated
May 22
Waxing Gibbous
May 24
Full
May 31
Last Quarter
Jun 8
New
Jun 16
First Quarter

Hourly Weather History & Observations

Time (MST) Temp. Dew Point Humidity Pressure Visibility Wind Dir Wind Speed Gust Speed Precip Events Conditions
12:56 AM 63.0 °F 7.0 °F 11% 29.74 in 10.0 mi Calm Calm - N/A   Clear
1:56 AM 60.1 °F 7.0 °F 12% 29.75 in 10.0 mi Calm Calm - N/A   Clear
2:56 AM 55.0 °F 5.0 °F 13% 29.76 in 10.0 mi Calm Calm - N/A   Clear
3:56 AM 54.0 °F 6.1 °F 15% 29.76 in 10.0 mi Calm Calm - N/A   Clear
4:56 AM 48.9 °F 3.9 °F 16% 29.77 in 10.0 mi Calm Calm - N/A   Clear
5:56 AM 55.0 °F 8.1 °F 15% 29.78 in 10.0 mi Calm Calm - N/A   Clear
6:56 AM 64.0 °F 10.9 °F 13% 29.78 in 10.0 mi Calm Calm - N/A   Clear
7:56 AM 72.0 °F 12.9 °F 10% 29.79 in 10.0 mi SSE 4.6 mph - N/A   Clear
8:56 AM 79.0 °F 16.0 °F 9% 29.78 in 10.0 mi SSE 6.9 mph - N/A   Clear
9:56 AM 82.0 °F 19.9 °F 10% 29.77 in 10.0 mi Variable 4.6 mph - N/A   Clear
10:56 AM 84.0 °F 19.9 °F 9% 29.77 in 10.0 mi Calm Calm - N/A   Clear
11:56 AM 88.0 °F 21.0 °F 9% 29.74 in 10.0 mi South 12.7 mph 18.4 mph N/A   Clear
12:56 PM 90.0 °F 17.1 °F 7% 29.72 in 10.0 mi SW 11.5 mph 18.4 mph N/A   Clear
1:56 PM 91.0 °F 12.9 °F 6% 29.70 in 10.0 mi SW 9.2 mph 19.6 mph N/A   Clear
2:56 PM 90.0 °F 12.0 °F 6% 29.69 in 10.0 mi WSW 10.4 mph - N/A   Clear
3:56 PM 91.9 °F 12.0 °F 5% 29.67 in 10.0 mi SSW 11.5 mph 17.3 mph N/A   Clear
4:56 PM 91.0 °F 12.9 °F 6% 29.68 in 10.0 mi SW 13.8 mph - N/A   Clear
5:56 PM 89.1 °F 12.9 °F 6% 29.67 in 10.0 mi SW 12.7 mph 21.9 mph N/A   Clear
6:56 PM 84.9 °F 14.0 °F 7% 29.67 in 10.0 mi SW 11.5 mph - N/A   Clear
7:56 PM 78.1 °F 16.0 °F 10% 29.68 in 10.0 mi WSW 6.9 mph - N/A   Clear
8:56 PM 75.9 °F 17.1 °F 11% 29.69 in 10.0 mi West 4.6 mph - N/A   Clear
9:56 PM 70.0 °F 17.1 °F 13% 29.72 in 10.0 mi SSW 4.6 mph - N/A   Clear
10:56 PM 66.0 °F 16.0 °F 15% 29.73 in 10.0 mi ENE 5.8 mph - N/A   Clear
11:56 PM 69.1 °F 19.0 °F 15% 29.72 in 10.0 mi SSW 9.2 mph - N/A   Clear